TimePDT,TemperatureF,Dew PointF,Humidity,Sea Level PressureIn,VisibilityMPH,Wind Direction,Wind SpeedMPH,Gust SpeedMPH,PrecipitationIn,Events,Conditions,WindDirDegrees,DateUTC
12:00 AM,44.6,42.8,93,30.07,20.0,WNW,4.6,-,N/A,,Partly Cloudy,290,2013-03-16 07:00:00
1:00 AM,42.8,41.0,93,30.06,20.0,NW,3.5,-,N/A,,Partly Cloudy,320,2013-03-16 08:00:00
2:00 AM,42.8,41.0,93,30.05,20.0,Calm,Calm,-,N/A,,Scattered Clouds,0,2013-03-16 09:00:00
3:00 AM,42.8,39.2,87,30.04,20.0,NW,2.3,-,N/A,,Partly Cloudy,310,2013-03-16 10:00:00
4:00 AM,41.0,41.0,100,30.02,20.0,Calm,Calm,-,N/A,,Partly Cloudy,0,2013-03-16 11:00:00
5:00 AM,41,41,98,29.99,19,Calm,Calm,,,,Partly Cloudy,,2013-03-16 12:00:00
5:00 AM,41.0,41.0,100,29.99,20.0,WSW,2.3,-,N/A,,Scattered Clouds,250,2013-03-16 12:00:00
6:00 AM,41.0,41.0,100,29.97,20.0,SSW,2.3,-,N/A,,Scattered Clouds,210,2013-03-16 13:00:00
7:00 AM,42.8,41.0,93,29.94,20.0,West,2.3,-,N/A,,Mostly Cloudy,270,2013-03-16 14:00:00
8:00 AM,41.0,41.0,100,29.92,20.0,Calm,Calm,-,N/A,,Overcast,0,2013-03-16 15:00:00
9:00 AM,42.8,41.0,93,29.91,20.0,WSW,2.3,-,N/A,,Mostly Cloudy,240,2013-03-16 16:00:00
10:00 AM,44.6,42.8,93,29.90,20.0,WNW,2.3,-,N/A,,Mostly Cloudy,300,2013-03-16 17:00:00
11:00 AM,46,44,90,29.88,19,NW,3.5,,,,Partly Cloudy,310,2013-03-16 18:00:00
11:00 AM,46.4,44.6,93,29.88,20.0,WNW,4.6,-,N/A,,Mostly Cloudy,290,2013-03-16 18:00:00
12:00 PM,46.4,44.6,93,29.88,20.0,North,11.5,-,N/A,,Overcast,360,2013-03-16 19:00:00
1:00 PM,44.6,41.0,87,29.87,20.0,North,11.5,-,N/A,,Overcast,360,2013-03-16 20:00:00
2:00 PM,44.6,39.2,81,29.86,20.0,North,15.0,-,N/A,,Overcast,350,2013-03-16 21:00:00
2:51 PM,-9999,-9999,N/A,-9999,20.0,NNW,16.1,-,N/A,Rain,Light Rain Showers,340,2013-03-16 21:51:00
3:00 PM,42.8,39.2,87,29.85,20.0,North,18.4,-,N/A,Rain,Light Rain Showers,350,2013-03-16 22:00:00
4:00 PM,41.0,39.2,93,29.86,4.0,NNW,10.4,-,N/A,Rain,Light Rain Showers,340,2013-03-16 23:00:00
5:00 PM,41,38,86,29.86,4,NW,9.2,,,Rain,Light Rain Showers,320,2013-03-17 00:00:00
5:00 PM,41.0,39.2,93,29.86,4.0,NW,11.5,-,N/A,Rain,Light Rain Showers,320,2013-03-17 00:00:00
5:39 PM,-9999,-9999,N/A,-9999,20.0,NW,6.9,-,N/A,,Overcast,310,2013-03-17 00:39:00
6:00 PM,41.0,37.4,87,29.86,20.0,NW,6.9,-,N/A,,Overcast,310,2013-03-17 01:00:00
7:00 PM,41.0,37.4,87,29.86,20.0,West,3.5,-,N/A,,Overcast,280,2013-03-17 02:00:00
8:00 PM,39.2,35.6,87,29.88,20.0,West,5.8,-,N/A,,Mostly Cloudy,280,2013-03-17 03:00:00
9:00 PM,39.2,35.6,87,29.90,20.0,West,5.8,-,N/A,,Partly Cloudy,280,2013-03-17 04:00:00
10:00 PM,39.2,35.6,87,29.91,20.0,WNW,4.6,-,N/A,,Partly Cloudy,290,2013-03-17 05:00:00
11:00 PM,38,34,80,29.93,19,WNW,5.8,,,,Partly Cloudy,300,2013-03-17 06:00:00
11:00 PM,37.4,33.8,87,29.93,20.0,NW,5.8,-,N/A,,Partly Cloudy,310,2013-03-17 06:00:00